Regional Weather Roundup
Issued by NWS Cleveland, OH

Home | Current Version | Previous Version | Graphics & Text | Print | Product List | Glossary On
Versions: 1 2 3 4 5 6 7 8 9 10 11 12 13 14 15 16 17 18 19 20 21 22 23 24 25 26 27 28 29 30 31 32 33 34 35 36 37 38 39 40 41 42 43 44 45 46 47 48 49 50
413
ASUS41 KCLE 012010
RWRCLE
OHIO REGIONAL WEATHER ROUNDUP
NATIONAL WEATHER SERVICE CLEVELAND, OH
400 PM EDT SUN MAY 01 2016

NOTE: "FAIR" INDICATES FEW OR NO CLOUDS BELOW 12,000 FEET WITH NO
SIGNIFICANT WEATHER AND/OR OBSTRUCTIONS TO VISIBILITY.

OHZ001>008-015>018-024>027-034-035-043-044-012100-
   NORTHWEST OHIO

CITY           SKY/WX    TMP DP  RH WIND       PRES   REMARKS
DEFIANCE       CLOUDY    58  52  80 N8        29.96F
FINDLAY        CLOUDY    62  54  74 NE8       29.94R
TOLEDO EXPRESS CLOUDY    56  51  84 NE7       29.96F
TOLEDO EXEC    CLOUDY    55  49  80 NE10      29.98S
LIMA           SUNNY     70  61  73 N7        29.92F
$$

OHZ009>014-019>023-028>033-038-089-012100-
   NORTHEAST OHIO

CITY           SKY/WX    TMP DP  RH WIND       PRES   REMARKS
CLE-HOPKINS    CLOUDY    54  50  86 N8        29.97S
CLE-LAKEFRONT  CLOUDY    51  48  89 N3        29.96S
CUY CO. ARPT   CLOUDY    54  52  94 N7        29.95F FOG
LORAIN-ELYRIA  CLOUDY    54  49  83 N8        29.96R
ASHTABULA      CLOUDY    54  52  93 N6        29.95F
AKRON-CANTON   PTSUNNY   68  57  68 W6        29.92S
WOOSTER        MOSUNNY   69  58  67 CALM      29.93S
MANSFIELD      CLOUDY    71  60  68 NW8       29.93R
YOUNGSTOWN     PTSUNNY   71  56  58 W8        29.90F
$$

OHZ042-051>053-060>062-070>072-077>081-012100-
  SOUTHWEST OHIO

CITY           SKY/WX    TMP DP  RH WIND       PRES   REMARKS
CINC-COVINGTON CLOUDY    77  57  50 S6        29.90F
CINC-LUNKEN    MOSUNNY   75  63  66 S6        29.89F
HAMILTON       PTSUNNY   78  59  51 NW9       29.90F
DAYTON         MOSUNNY   74  58  57 W10       29.92F
WRIGHT-PAT AFB MOSUNNY   77  58  51 SW9       29.90F
DAYTON GENERAL SUNNY     76  54  46 W9        29.90F
WILMINGTON     LGT RAIN  75  60  59 SW10      29.90F
$$

OHZ036-037-039>041-045>050-054>059-063>069-073>076-082>088-012100-
  CENTRAL AND SOUTHEAST OHIO

CITY           SKY/WX    TMP DP  RH WIND       PRES   REMARKS
COLUMBUS       MOSUNNY   74  58  57 SW9       29.90F
OSU AIRPORT    PTSUNNY   77  59  53 SW9G16    29.90S
BOLTON FIELD   MOSUNNY   75  61  60 SW12      29.92S
RICKENBACK AFB SUNNY     75  61  62 SW9       29.90F
NEWARK         MOSUNNY   79  55  43 SW10G17   29.90F
MARION         RAIN      68  62  81 N5        29.92S
LANCASTER      MOSUNNY   75  60  59 SW9       29.91F
ZANESVILLE     MOSUNNY   75  61  61 S7        29.91F
NEW PHILLY     LGT RAIN  65  60  84 S6        29.93R
$$




USA.gov is the U.S. government's official web portal to all federal, state and local government web resources and services.